Home > Weather > Annapolis > Past weeks

Flag for USA Weather for the Past 2 Weeks in Annapolis, Maryland, USA

Now
62 °F

Fog.


Feels Like: 62 °F
Forecast: 58 / 66 °F
Wind: No wind

Location: Annapolis - United States Naval Academy

Current Time: May 3, 2016 at 2:50:04 AM

Latest Report: May 3, 2016 at 1:54 AM


Visibility: 3 mi

Pressure: 29.83 "Hg

Humidity: 96%

Dew Point: 61 °F

Location of AnnapolisLocation

Historic Weather in Annapolis — Graph

°F

Annapolis Temperature Yesterday

Maximum temperature yesterday: 66 °F (at 5:54 PM)
Minimum temperature yesterday: 54 °F (at 12:54 AM)
Average temperature yesterday: 59 °F

High & Low Weather Summary for the Past Weeks

 TemperatureHumidityPressure
High85 °F (Apr 26, 4:54 PM)100% (Apr 23, 1:54 AM)30.33 "Hg (Apr 23, 1:54 AM)
Low47 °F (Apr 28, 10:54 PM)20% (Apr 24, 12:54 PM)29.66 "Hg (Apr 26, 4:54 PM)
Average59 °F70%30.02 "Hg
* Reported Apr 18 12:54 AM — May 3 12:54 AM, Annapolis, Weather by CustomWeather, © 2016

Note: Actual official high and low records may vary slightly from our data, if they occured in-between our weather recording intervals... More about our weather records

Advertising

Annapolis Weather History for the Previous 24 Hours

Scroll right to see more
 ConditionsComfort  
Time TempWeatherWind HumidityBarometerVisibility
12:54 AM
Tue, May 3
61 °FFog.No wind100%29.83 "Hg4 mi
12:02 AM61 °FFog.3 mph100%29.85 "Hg3 mi
11:54 PM
Mon, May 2
61 °FFog.8 mph97%29.85 "Hg3 mi
10:54 PM63 °FFog.7 mph97%29.87 "Hg5 mi
9:54 PM65 °FHeavy rain. Fog.9 mph91%29.91 "Hg1 mi
9:01 PM65 °FLight rain. Fog.5 mph97%29.84 "Hg2 mi
7:54 PM63 °FScattered clouds.7 mph93%29.82 "Hg10 mi
6:54 PM66 °FPassing clouds.5 mph87%29.85 "Hg10 mi
5:54 PM66 °FSunny.7 mph87%29.85 "Hg10 mi
4:54 PM64 °FSunny.9 mph90%29.87 "Hg10 mi
3:54 PM63 °FFog.7 mph90%29.88 "Hg6 mi
2:54 PM61 °FFog.12 mph93%29.90 "Hg4 mi
1:54 PM59 °FFog.10 mph96%29.92 "Hg4 mi
12:54 PM59 °FFog.5 mph93%29.93 "Hg5 mi
11:54 AM57 °FFog.9 mph96%29.95 "Hg4 mi
10:54 AM56 °FFog.7 mph97%29.96 "Hg4 mi
10:01 AM55 °FFog.8 mph100%29.96 "Hg2 mi
8:54 AM55 °FFog.3 mph96%29.99 "Hg2 mi
7:54 AM55 °FFog.3 mph96%29.99 "Hg2 mi
7:04 AM55 °FFog.9 mph96%29.96 "Hg2 mi
6:54 AM55 °FFog.7 mph96%29.97 "Hg2 mi
5:54 AM55 °FFog.5 mph96%29.97 "Hg3 mi
4:54 AM55 °FLow clouds.6 mph93%29.96 "Hg9 mi
3:54 AM54 °FFog.8 mph97%29.95 "Hg6 mi
2:54 AM54 °FFog.6 mph100%29.96 "Hg6 mi
Weather by CustomWeather, © 2016

See weather overviewHow to use our weather pages